FW9285 Weather Reports


Display with metric or nautical units.
time (UTC)temp
F
wind
direction
speed
MPH
gust
MPH
rain 1hr
in
rain 24hr
in
rain mn
in
humidity
%
barometer
mb
20260510150551 86 194 0.0 3.0 0.00 0.00 0.00 18 1011.3
20260510145549 85 179 1.0 4.0 0.00 0.00 0.00 18 1011.3
20260510144557 83 242 0.0 2.0 0.00 0.00 0.00 19 1011.3
20260510143552 81 266 0.0 2.0 0.00 0.00 0.00 21 1011.0
20260510142551 80 176 1.0 4.0 0.00 0.00 0.00 21 1010.9
20260510141553 79 177 2.0 2.0 0.00 0.00 0.00 22 1010.9
20260510140550 77 181 1.0 3.0 0.00 0.00 0.00 23 1010.9
20260510135551 76 189 0.0 2.0 0.00 0.00 0.00 23 1010.8
20260510134549 74 260 0.0 2.0 0.00 0.00 0.00 24 1010.7
20260510133552 74 260 0.0 2.0 0.00 0.00 0.00 25 1010.9
20260510132551 73 255 1.0 2.0 0.00 0.00 0.00 24 1010.7
20260510131551 71 244 1.0 2.0 0.00 0.00 0.00 25 1010.6
20260510130552 70 248 1.0 2.0 0.00 0.00 0.00 25 1010.6
20260510125551 69 10 0.0 2.0 0.00 0.00 0.00 26 1010.4
20260510124551 70 206 2.0 2.0 0.00 0.00 0.00 24 1010.2
20260510123551 70 203 0.0 4.0 0.00 0.00 0.00 24 1010.2
20260510122551 68 231 1.0 3.0 0.00 0.00 0.00 26 1010.1
20260510121550 68 235 2.0 3.0 0.00 0.00 0.00 27 1010.3
20260510120555 67 301 2.0 2.0 0.00 0.00 0.00 31 1010.2
20260510115550 67 282 2.0 2.0 0.00 0.00 0.00 29 1010.1
20260510113551 68 239 2.0 2.0 0.00 0.00 0.00 28 1010.0
20260510111551 69 297 2.0 2.0 0.00 0.00 0.00 27 1009.9
20260510110550 70 300 2.0 2.0 0.00 0.00 0.00 28 1009.7
20260510105550 72 239 1.0 2.0 0.00 0.00 0.00 23 1009.8
20260510104553 72 213 2.0 2.0 0.00 0.00 0.00 22 1009.4
20260510102550 71 212 1.0 2.0 0.00 0.00 0.00 24 1009.6
20260510101550 70 247 1.0 1.0 0.00 0.00 0.00 26 1009.5
20260510100552 71 269 1.0 1.0 0.00 0.00 0.00 24 1009.4
20260510095552 71 234 0.0 2.0 0.00 0.00 0.00 24 1009.4
20260510094551 72 228 1.0 2.0 0.00 0.00 0.00 23 1009.5
20260510093551 72 265 2.0 2.0 0.00 0.00 0.00 25 1009.3
20260510092551 73 240 0.0 2.0 0.00 0.00 0.00 23 1009.0
20260510091551 73 213 1.0 2.0 0.00 0.00 0.00 23 1009.3
20260510090550 74 196 1.0 2.0 0.00 0.00 0.00 23 1009.2
20260510085550 73 239 2.0 2.0 0.00 0.00 0.00 23 1009.3
20260510084550 73 233 0.0 2.0 0.00 0.00 0.00 23 1009.2
20260510083551 73 269 0.0 2.0 0.00 0.00 0.00 23 1009.3
20260510081550 74 218 1.0 2.0 0.00 0.00 0.00 23 1009.0
20260510074551 76 237 1.0 2.0 0.00 0.00 0.00 22 1009.2
20260510073548 76 218 1.0 2.0 0.00 0.00 0.00 23 1009.2
20260510071550 78 205 1.0 3.0 0.00 0.00 0.00 22 1008.9
20260510065549 78 241 0.0 2.0 0.00 0.00 0.00 22 1008.7
20260510063550 79 200 0.0 2.0 0.00 0.00 0.00 22 1008.5
20260510062549 80 203 1.0 3.0 0.00 0.00 0.00 21 1008.6
20260510060550 80 180 2.0 2.0 0.00 0.00 0.00 21 1008.3
20260510055549 80 227 1.0 2.0 0.00 0.00 0.00 21 1008.2
20260510054549 80 183 1.0 2.0 0.00 0.00 0.00 21 1008.3
20260510052547 80 269 1.0 2.0 0.00 0.00 0.00 24 1008.0
20260510051549 81 304 1.0 1.0 0.00 0.00 0.00 24 1007.9
20260510045546 82 278 1.0 2.0 0.00 0.00 0.00 22 1007.7
20260510044544 83 292 1.0 2.0 0.00 0.00 0.00 23 1007.7
20260510043543 84 295 1.0 2.0 0.00 0.00 0.00 22 1007.5
20260510042542 85 289 2.0 3.0 0.00 0.00 0.00 20 1007.6
20260510041545 87 286 1.0 2.0 0.00 0.00 0.00 18 1007.5
20260510040542 88 266 1.0 4.0 0.00 0.00 0.00 18 1007.3
20260510034542 87 234 2.0 2.0 0.00 0.00 0.00 19 1007.1
20260510033542 88 269 0.0 2.0 0.00 0.00 0.00 20 1007.0
20260510024542 93 343 1.0 5.0 0.00 0.00 0.00 16 1006.3
20260510023542 94 260 2.0 5.0 0.00 0.00 0.00 16 1006.3
20260510022543 95 198 0.0 6.0 0.00 0.00 0.00 15 1006.3
20260510021542 96 255 4.0 6.0 0.00 0.00 0.00 15 1006.1
20260510020541 96 226 2.0 6.0 0.00 0.00 0.00 15 1006.3
20260510015543 97 237 3.0 10.0 0.00 0.00 0.00 15 1006.1
20260510014540 97 226 3.0 10.0 0.00 0.00 0.00 15 1005.8
20260510013542 98 285 3.0 8.0 0.00 0.00 0.00 15 1006.0
20260510012539 98 344 2.0 9.0 0.00 0.00 0.00 15 1006.1
20260510011541 100 287 1.0 6.0 0.00 0.00 0.00 14 1005.9
20260510010539 101 3 1.0 10.0 0.00 0.00 0.00 14 1006.1
20260510005539 101 342 4.0 11.0 0.00 0.00 0.00 14 1006.1
20260510004538 101 203 2.0 11.0 0.00 0.00 0.00 14 1006.0
20260510003537 102 258 1.0 11.0 0.00 0.00 0.00 13 1005.9
20260510002536 102 263 3.0 10.0 0.00 0.00 0.00 13 1006.0
20260510001537 103 267 3.0 11.0 0.00 0.00 0.00 13 1006.1
20260510000535 103 220 0.0 11.0 0.00 0.00 0.00 14 1006.3
20260509234540 103 53 2.0 12.0 0.00 0.00 0.00 14 1006.2
20260509233535 104 314 3.0 11.0 0.00 0.00 0.00 13 1006.2
20260509232530 103 219 3.0 10.0 0.00 0.00 0.00 14 1006.4
20260509231532 103 274 2.0 9.0 0.00 0.00 0.00 13 1007.0
20260509230530 103 228 3.0 13.0 0.00 0.00 0.00 14 1006.6
20260509225530 104 238 3.0 9.0 0.00 0.00 0.00 14 1006.9
20260509223532 104 230 2.0 9.0 0.00 0.00 0.00 14 1007.0
20260509222530 102 62 0.0 6.0 0.00 0.00 0.00 14 1007.3
20260509221530 104 329 2.0 11.0 0.00 0.00 0.00 14 1007.0
20260509220531 103 258 6.0 12.0 0.00 0.00 0.00 14 1007.2
20260509215529 101 325 2.0 13.0 0.00 0.00 0.00 14 1007.5
20260509214531 104 31 2.0 13.0 0.00 0.00 0.00 14 1007.8
20260509213531 103 302 4.0 11.0 0.00 0.00 0.00 14 1007.7
20260509212530 102 249 3.0 11.0 0.00 0.00 0.00 14 1007.6
20260509211531 102 320 2.0 11.0 0.00 0.00 0.00 14 1008.1
20260509210531 101 274 4.0 11.0 0.00 0.00 0.00 14 1008.3
20260509205530 101 280 1.0 8.0 0.00 0.00 0.00 14 1008.5
20260509204531 102 346 6.0 9.0 0.00 0.00 0.00 14 1008.5
20260509203531 100 241 2.0 8.0 0.00 0.00 0.00 15 1008.6
20260509202539 101 268 6.0 9.0 0.00 0.00 0.00 14 1009.0
20260509201531 99 346 2.0 11.0 0.00 0.00 0.00 15 1009.4
20260509200530 100 303 4.0 12.0 0.00 0.00 0.00 15 1009.3
20260509195530 100 233 2.0 9.0 0.00 0.00 0.00 14 1009.4
20260509194530 98 160 3.0 6.0 0.00 0.00 0.00 16 1009.4
20260509192530 98 305 2.0 6.0 0.00 0.00 0.00 16 1010.0
20260509190531 97 255 2.0 6.0 0.00 0.00 0.00 18 1009.8
20260509185529 96 305 1.0 7.0 0.00 0.00 0.00 17 1010.0
20260509184530 97 242 3.0 7.0 0.00 0.00 0.00 18 1010.1
20260509183531 96 250 2.0 6.0 0.00 0.00 0.00 17 1010.2
20260509181531 95 228 5.0 6.0 0.00 0.00 0.00 17 1010.7
20260509180531 97 176 2.0 5.0 0.00 0.00 0.00 18 1010.8
20260509175531 95 160 3.0 6.0 0.00 0.00 0.00 18 1010.8
20260509174530 94 185 2.0 6.0 0.00 0.00 0.00 18 1010.8
20260509173536 94 143 4.0 6.0 0.00 0.00 0.00 19 1011.0
20260509172530 92 261 5.0 5.0 0.00 0.00 0.00 19 1011.0
20260509171530 93 348 0.0 5.0 0.00 0.00 0.00 20 1011.1
20260509170530 92 205 0.0 6.0 0.00 0.00 0.00 19 1011.1
20260509165529 93 151 2.0 6.0 0.00 0.00 0.00 19 1011.1
20260509163529 90 251 2.0 6.0 0.00 0.00 0.00 20 1010.9
20260509161529 91 174 3.0 5.0 0.00 0.00 0.00 20 1011.2
20260509160530 88 236 2.0 6.0 0.00 0.00 0.00 20 1011.2
20260509155528 88 259 1.0 6.0 0.00 0.00 0.00 23 1011.5
20260509154529 87 159 1.0 5.0 0.00 0.00 0.00 22 1011.1
20260509153529 86 273 2.0 5.0 0.00 0.00 0.00 23 1011.3
20260509152528 86 163 1.0 5.0 0.00 0.00 0.00 23 1011.3
20260509151528 86 240 4.0 5.0 0.00 0.00 0.00 24 1011.5